Welcome to the New NWS' Forecast!
Most changes are behind the scenes, but click here for differences you might notice.
Latest weather observations around

Texarkana, Texarkana Regional-Webb Field (KTXK)

Using English Units (Switch to International System of Units)
Date/ Time (CDT) Wind (mph) Vis. (mi) Weather Sky Cond. Temp (°F) Rel. Humidity Wind Chill (°F) Heat Index (°F) Pressure Precip. (in)
Air Dwpt 6 hour Altimeter (inHg) Sea level (inHg) 1 hr 3 hr 6 hr
Max Min
Jun 25 00:53 Calm 10 Mostly Cloudy BKN090 69 67     93%     30.18 30.17      
Jun 24 23:53 3 10 Clear CLR 70 67     90%     30.18 30.16      
Jun 24 22:53 NE 5 10 Cloudy OVC090 72 67     84%   73 30.15 30.14      
Jun 24 21:53 3 10 Cloudy OVC085 72 67     84%   73 30.14 30.13      
Jun 24 20:53 3 10 Partly Cloudy SCT070 73 68     84%   74 30.13 30.12      
Jun 24 19:53 5 10 Clear CLR 76 67     74%   77 30.12 30.1      
Jun 24 18:53 5 10 Partly Cloudy SCT085 78 68     71%   79 30.1 30.09      
Jun 24 17:53 E 6 10 Mostly Cloudy BKN070 79 66     65%   80 30.09 30.08      
Jun 24 16:53 6 10 Mostly Cloudy BKN065 78 64     62%   79 30.1 30.08      
Jun 24 15:53 8 10 Mostly Cloudy SCT065 BKN080 79 63     58%   79 30.1 30.09      
Jun 24 14:53 NE 8 10 Cloudy OVC065 79 65     62%   80 30.11 30.1      
Jun 24 13:53 8 10 Cloudy OVC095 78 65     64%   79 30.12 30.11      
Jun 24 12:53 10 10 Cloudy BKN060 OVC090 78 63     60%   78 30.13 30.11      
Jun 24 11:53 NE 9 10 Cloudy OVC060 78 63     60%   78 30.14 30.12      
Jun 24 11:16 NE 11 10 Partly Cloudy FEW002 SCT060 78 64     62%   79 30.13        
Jun 24 10:53 8 10 Mostly Cloudy SCT055 BKN100 76 65     69%   76 30.13 30.12      
Jun 24 09:53 NE 10 10 Cloudy OVC060 74 68     82%   75 30.12 30.1      
Jun 24 07:53 NE 7 10 Cloudy OVC055 71 70     96%   72 30.09 30.07      
Jun 24 06:53 NE 5 10 Partly Cloudy FEW045 SCT085 70 70     100%     30.05 30.03     0
Jun 24 05:53 NE 5 10 Clear CLR 70 70     100%     30.04 30.02      
Jun 24 04:53 E 3 10 Mostly Cloudy BKN085 70 70     100%     30.03 30.01      
Jun 24 04:29 6 10 Cloudy FEW005 OVC085 70 70     100%     30.02        
Jun 24 03:53 NE 9 10 Cloudy OVC005 71 71     100%   73 30.01 29.99   0  
Jun 24 02:53 E 6 9 Mostly Cloudy BKN005 BKN080 71 71     100%   73 29.98 29.97 0    
Jun 24 02:50 5 9 Mostly Cloudy BKN005 BKN080 72 72     100%   73 29.99   0    
Jun 24 02:34 6 10 Partly Cloudy FEW006 SCT010 71 71     100%   73 29.98   0    
Jun 24 02:17 NE 6 10 Light Rain SCT004 BKN010 72 72     100%   74 29.98   0    
Jun 24 01:53 Calm 10 Mostly Cloudy BKN004 BKN008 72 72     100%   74 29.99 29.97      
Jun 24 01:28 5 10 Mostly Cloudy SCT007 BKN080 72 72     100%   74 29.98        
Jun 24 01:00 8 10 Cloudy BKN007 BKN012 OVC095 72 72     100%   74 29.96        
Jun 24 00:53 NNW 10 10 Mostly Cloudy SCT005 BKN075 BKN095 72 72     100%   74 29.97 29.96 0   0
Jun 23 23:53 E 6 10 Mostly Clear FEW004 FEW110 72 72     100%   74 29.95 29.93 0    
Jun 23 23:24 SE 7 10 Partly Cloudy SCT110 72 72     100%   74 29.95        
Jun 23 23:08 E 3 10 Mostly Cloudy BKN110 72 72     100%   74 29.94        
Jun 23 22:53 Calm 10 Thunderstorms BKN110 73 70     90%   74 29.94 29.92 0    
Jun 23 22:20 9 5 Thunderstorms and Rain and Fog/Mist FEW007 BKN075 OVC100 73 73     100%   75 29.94   0    
Jun 23 22:10 9 2 Thunderstorms and Heavy Rain and Fog/Mist FEW007 BKN041 OVC070 73 73     100%   75 29.93   0    
Jun 23 22:02   1.75 Thunderstorms and Heavy Rain and Fog/Mist FEW007 BKN039 OVC070 73 73     100%   75 29.97   0    
Jun 23 21:53 NNW 11 2.5 Thunderstorms and Heavy Rain and Fog/Mist FEW007 BKN048 OVC085 73 73     100%   75 29.98 29.96 0 0  
Jun 23 21:44 7 10 Thunderstorms FEW007 BKN055 OVC085 73 72     96%   75 29.94        
Jun 23 21:33 E 10 10 Cloudy FEW009 BKN070 OVC085 73 72     96%   75 29.93        
Jun 23 20:53   10 Partly Cloudy FEW028 FEW037 SCT070 81 75     82%   87 29.91 29.89      
Jun 23 20:45 6 10 Mostly Clear FEW065 83 78     85%   93 29.88        
Jun 23 19:53 SE 3 10 Clear CLR 86 78     77%   98 29.86 29.84      
Jun 23 18:53 7 10 Clear CLR 89 77     68%   102 29.83 29.82      
Jun 23 17:53 7 10 Clear CLR 90 76     64%   102 29.82 29.81      
Jun 23 16:53 7 10 Clear CLR 91 76     61%   103 29.81 29.8      
Jun 23 15:53 9 10 Mostly Clear FEW035 90 75     62%   101 29.82 29.8      
Jun 23 14:53 8 10 Partly Cloudy SCT032 90 75     62%   101 29.82 29.81      
Jun 23 14:16 WSW 10 10 Partly Cloudy SCT028 90 76     64%   102 29.82        
Jun 23 13:53 11 10 Mostly Cloudy BKN025 90 77     66%   103 29.82 29.8      
Jun 23 13:38 S 9 10 Mostly Cloudy BKN024 BKN029 BKN039 88 77     70%   100 29.83        
Jun 23 13:31 7 10 Mostly Cloudy SCT026 BKN039 89 77     68%   102 29.83        
Jun 23 13:23 11 10 Mostly Cloudy SCT024 BKN029 BKN039 89 77     68%   102 29.83        
Jun 23 13:16 S 8 10 Mostly Cloudy SCT024 SCT029 BKN036 88 77     70%   100 29.83        
Jun 23 13:01 8 10 Mostly Cloudy BKN026 BKN034 87 77     72%   99 29.84        
Jun 23 12:53 8 10 Mostly Cloudy SCT024 BKN030 BKN037 87 77     72%   99 29.84 29.82      
Jun 23 12:48 8 10 Mostly Cloudy BKN026 BKN032 88 77     70%   100 29.84        
Jun 23 11:53 10 10 Partly Cloudy SCT024 88 76     68%   99 29.83 29.81      
Jun 23 10:53 6 10 Mostly Cloudy BKN024 87 76     70%   98 29.83 29.81      
Jun 23 09:53 WSW 13 10 Mostly Clear FEW019 85 76     75%   94 29.81 29.79      
Jun 23 08:53 WSW 14 10 Clear CLR 83 76     79%   91 29.79 29.77      
Jun 23 07:53 13 10 Partly Cloudy SCT080 80 76     87%   85 29.79 29.77      
Jun 23 06:53 WSW 9 10 Mostly Cloudy BKN075 78 76     93%   80 29.75 29.73      
Jun 23 05:53 10 10 Cloudy SCT048 OVC060 77 76     96%   79 29.73 29.71      
Jun 23 05:26 10 10 Cloudy FEW009 BKN046 OVC070 77 77     100%   79 29.72        
Jun 23 04:53 6 10 Cloudy OVC009 76 76     100%   78 29.72 29.7      
Jun 23 04:21 3 10 Cloudy BKN009 OVC015 76 76     100%   78 29.72        
Jun 23 04:12 6 10 Mostly Cloudy BKN012 BKN018 BKN035 76 76     100%   78 29.72        
Jun 23 03:53 5 10 Partly Cloudy FEW005 FEW035 SCT110 75 75     100%   77 29.71 29.7      
Jun 23 02:53 7 10 Partly Cloudy SCT004 76 76     100%   78 29.71 29.69      
Jun 23 01:53 5 10 Clear CLR 75 75     100%   77 29.7 29.68      
Jun 23 00:53 7 10 Partly Cloudy SCT044 77 76     96%   79 29.7 29.68     0
Jun 23 00:19 WSW 5 10 Mostly Cloudy SCT017 BKN044 77 76     96%   79 29.68        
Jun 22 23:53 W 6 10 Mostly Cloudy BKN016 BKN023 78 76     93%   80 29.67 29.65      
Jun 22 23:28 W 7 10 Mostly Cloudy BKN017 78 76     93%   80 29.67        
Jun 22 22:53 3 10 Mostly Cloudy FEW018 SCT025 BKN043 78 76     93%   80 29.66 29.64      
Jun 22 22:32 W 5 10 Cloudy FEW019 BKN032 OVC041 78 76     93%   80 29.66        
Jun 22 21:53 3 10 Mostly Cloudy SCT019 BKN027 BKN036 77 76     96%   79 29.64 29.62 0 0  
Jun 22 21:48 Calm 10 Mostly Cloudy SCT019 BKN026 BKN036 79 75     89%   82 29.64   0    
Jun 22 21:24 Calm 10 Mostly Cloudy FEW033 BKN048 77 77     100%   79 29.62   0    
Jun 22 20:53 Calm 10 Light Rain FEW024 BKN042 77 76     96%   79 29.6 29.59 0    
Jun 22 20:01 9 10 Mostly Cloudy BKN028 BKN055 79 76     90%   83 29.59        
Jun 22 19:53 8 10 Mostly Cloudy SCT028 BKN055 79 76     90%   83 29.59 29.57      
Jun 22 19:17 NE 9 10 Mostly Cloudy FEW018 SCT022 BKN036 80 75     85%   85 29.58        
Jun 22 19:01 NE 8 10 Mostly Cloudy BKN020 BKN025 81 75     82%   87 29.59        
Jun 22 18:53 NE 11 10 Mostly Cloudy SCT020 SCT026 BKN044 81 75     82%   87 29.59 29.57     0
Jun 22 18:04 NE 9 10 Cloudy SCT024 BKN033 OVC055 81 74     79%   86 29.6        
Jun 22 17:53 8 10 Cloudy BKN022 BKN027 OVC033 82 73     74%   87 29.6 29.58      
Jun 22 17:05 9 10 Cloudy FEW023 BKN028 OVC041 81 74     79%   86 29.59        
Jun 22 16:53 13 10 Mostly Cloudy SCT021 BKN038 BKN045 83 74     74%   89 29.59 29.57      
Jun 22 15:53 13 10 Mostly Cloudy SCT021 BKN026 83 75     77%   90 29.6 29.58   0  
Jun 22 15:29 10 10 Mostly Cloudy BKN023 BKN034 85 75     72%   93 29.6        
Jun 22 14:53 E 8 10 Cloudy SCT024 BKN031 OVC055 84 75     74%   92 29.62 29.6      
Jun 22 13:53 10 10 Partly Cloudy FEW024 FEW050 SCT100 83 76     79%   91 29.64 29.62 0    
Jun 22 13:18 9 10 Partly Cloudy SCT020 SCT095 84 75     74%   92 29.64        
Jun 22 12:53 E 9 10 Mostly Cloudy BKN019 82 76     82%   89 29.67 29.65 0   0
Jun 22 12:35 E 11 10 Mostly Cloudy SCT018 BKN022 81 76     85%   87 29.67   0    
Jun 22 12:09 8 6 Light Rain and Fog/Mist SCT017 BKN032 BKN038 79 77     94%   83 29.68   0    
Jun 22 11:53 E 8 2.5 Rain and Fog/Mist SCT019 BKN027 OVC036 79 75     88%   83 29.69 29.68 0    
Jun 22 11:03 7 10 Cloudy BKN016 OVC021 80 75     85%   85 29.7        
Jun 22 10:53 NE 8 10 Cloudy BKN013 BKN021 OVC026 79 75     88%   83 29.7 29.69 0    
Jun 22 10:23 7 10 Cloudy BKN011 OVC017 77 75     94%   79 29.7   0    
Jun 22 10:16 7 10 Cloudy BKN009 OVC017 77 75     94%   79 29.71   0    
Jun 22 09:53 NE 9 9 Light Rain BKN011 OVC014 76 74     94%   78 29.71 29.69 0 0  
Jun 22 08:53 8 10 Cloudy BKN014 OVC020 77 74     90%   79 29.71 29.69      
Jun 22 08:46 E 10 10 Cloudy BKN014 OVC019 77 74     90%   79 29.71        
Jun 22 08:19 11 10 Mostly Cloudy FEW010 BKN020 BKN029 77 74     90%   79 29.71        
Jun 22 08:10 8 10 Mostly Cloudy FEW010 SCT022 BKN037 77 74     90%   79 29.72        
Jun 22 08:03 10 10 Cloudy SCT010 BKN027 OVC050 77 74     90%   79 29.72        
Jun 22 07:53 8 10 Cloudy SCT010 BKN038 OVC050 76 74     94%   78 29.72 29.7      
Jun 22 07:19 8 10 Cloudy SCT009 BKN036 OVC049 75 74     96%   77 29.72        
Jun 22 07:03 8 10 Cloudy BKN009 BKN041 OVC049 75 74     96%   77 29.72        
Jun 22 06:53 7 10 Cloudy BKN010 OVC049 75 74     96%   77 29.72 29.7     0
Jun 22 05:53 6 10 Cloudy OVC011 75 73     94%   77 29.71 29.7      
Jun 22 04:53 6 10 Cloudy OVC011 75 73     94%   77 29.72 29.7      
Jun 22 03:53 NE 7 10 Cloudy OVC011 75 73     94%   77 29.73 29.71   0  
Jun 22 02:53 6 10 Cloudy OVC011 75 73     94%   77 29.74 29.72      
Jun 22 01:53 E 7 10 Cloudy OVC010 74 73     97%   76 29.76 29.74 0    
Jun 22 01:13 6 10 Cloudy OVC010 75 73     94%   77 29.78        
Jun 22 00:53 9 10 Cloudy OVC009 74 73     97%   76 29.78 29.76     0
Jun 21 23:53 9 10 Cloudy OVC009 74 72     94%   75 29.78 29.77      
Jun 21 22:53 9 10 Cloudy OVC013 75 72     90%   76 29.81 29.79      
Jun 21 22:21 E 8 10 Cloudy OVC014 75 72     90%   76 29.81        
Jun 21 21:53 11 10 Cloudy OVC016 75 72     90%   76 29.8 29.78   0  
Jun 21 20:53 11 10 Cloudy BKN024 OVC040 76 72     88%   77 29.8 29.79      
Jun 21 19:53 11 10 Cloudy FEW025 BKN035 OVC049 77 72     84%   78 29.81 29.79 0    
Jun 21 19:41 11 10 Cloudy FEW023 BKN037 OVC049 77 72     84%   78 29.81   0    
Jun 21 19:32 8 10 Light Rain BKN025 BKN033 OVC050 77 72     84%   78 29.82   0    
Jun 21 18:53 8 10 Cloudy FEW025 SCT039 OVC055 79 71     77%   82 29.81 29.8      
Jun 21 17:53 NE 15 10 Cloudy FEW039 OVC050 81 71     72%   85 29.82 29.8      
Jun 21 16:53 7 10 Cloudy FEW032 BKN043 OVC050 81 70     69%   84 29.83 29.82      
Jun 21 15:53 13 10 Cloudy SCT036 OVC046 82 69     65%   85 29.85 29.84      
Jun 21 14:53 11 10 Mostly Cloudy BKN048 84 69     61%   88 29.87 29.85      
Jun 21 14:09 11 10 Partly Cloudy SCT038 85 69     59%   89 29.88        
Jun 21 13:53 15 10 Mostly Cloudy FEW036 BKN048 86 69     57%   90 29.88 29.87      
Jun 21 12:53 10 10 Mostly Clear FEW028 83 70     65%   87 29.9 29.89      
Jun 21 11:53 E 8 10 Clear CLR 84 70     63%   88 29.92 29.91      
Jun 21 10:53 NE 10 10 Mostly Clear FEW019 82 71     69%   86 29.93 29.91      
Jun 21 09:53 NE 9 10 Clear CLR 76 71     85%   77 29.94 29.93      
Jun 21 09:16 6 10 Clear CLR 75 71     88%   76 29.95        
Jun 21 08:53 7 10 Clear CLR 75 70     84%   76 29.95 29.93      
Jun 21 07:53 NE 6 10 Clear CLR 70 69     97%     29.94 29.92      
Jun 21 06:53 5 10 Clear CLR 67 67     100%     29.94 29.93      
Jun 21 05:53 NE 3 9 Clear CLR 65 65     100%     29.93 29.91      
Jun 21 04:53 NE 5 10 Clear CLR 66 66     100%     29.92 29.91      
Jun 21 03:53 3 10 Clear CLR 66 66     100%     29.92 29.91      
Jun 21 02:53 Calm 10 Clear CLR 67 67     100%     29.93 29.92      
Jun 21 01:53 Calm 10 Clear CLR 69 67     93%     29.96 29.94      
Jun 21 00:53 Calm 10 Clear CLR 69 67     93%     29.97 29.95      
Jun 20 23:53 3 10 Clear CLR 70 67     90%     29.99 29.97      
Jun 20 22:53 NE 3 10 Clear CLR 71 67     87%   72 29.98 29.96      
Jun 20 21:53 3 10 Clear CLR 76 67     74%   77 29.95 29.93      
Jun 20 20:53 3 10 Clear CLR 78 67     69%   79 29.94 29.93      
Jun 20 19:53 NE 6 10 Clear CLR 84 67     57%   87 29.95 29.93      
Jun 20 18:53 6 10 Clear CLR 87 66     50%   89 29.95 29.93      
Jun 20 17:53 7 10 Clear CLR 87 65     48%   89 29.94 29.93      
Jun 20 16:53 NE 8 10 Clear CLR 90 63     41%   91 29.96 29.94      
Jun 20 15:53 7 7 Clear CLR 90 62     40%   90 29.97 29.95      
Jun 20 14:53 7 10 Clear CLR 89 63     42%   90 29.99 29.97      
Jun 20 13:53 NE 10 10 Clear CLR 88 63     43%   89 30.01 29.99      
Jun 20 12:53 9 10 Clear CLR 87 65     48%   89 30.03 30.01      
Jun 20 11:53 7 10 Clear CLR 85 67     55%   88 30.04 30.03      
Jun 20 10:53 10 10 Clear CLR 83 69     63%   87 30.06 30.04      
Jun 20 09:53 NE 10 10 Clear CLR 81 70     69%   84 30.06 30.04      
Jun 20 08:53 NE 6 10 Clear CLR 77 71     82%   78 30.05 30.04      
Jun 20 07:53 5 10 Clear CLR 72 71     97%   73 30.05 30.04      
Jun 20 06:53 Calm 3 Fog/Mist CLR 68 68     100%     30.04 30.02      
Jun 20 06:10 5 3 Fog/Mist CLR 68 68     100%     30.02        
Jun 20 06:03 3 2.5 Fog/Mist CLR 67 67     100%     30.01        
Jun 20 06:00 3 1 Fog/Mist CLR 67 67     100%     30.01        
Jun 20 05:53 3 3 Fog/Mist CLR 66 66     100%     30.01 30      
Jun 20 05:36 Calm 0.75 Fog/Mist CLR 67 67     100%     30        
Jun 20 05:33 Calm 1.5 Fog/Mist CLR 67 67     100%     30        
Jun 20 05:20 Calm 0.75 Fog/Mist CLR 67 67     100%     30.01        
Jun 20 05:13 Calm 1.5 Fog/Mist CLR 67 67     100%     30.01        
Jun 20 04:53 NE 3 6 Fog/Mist CLR 68 68     100%     30.01 29.99      
Jun 20 03:53 NE 3 6 Fog/Mist CLR 67 67     100%     30.01 29.99      
Jun 20 03:31 3 2 Fog/Mist CLR 67 67     100%     30.01        
Jun 20 03:22 Calm 1.25 Fog/Mist CLR 68 68     100%     30.01        
Jun 20 03:13 Calm 2 Fog/Mist CLR 68 68     100%     30.01        
Jun 20 03:06 Calm 1.25 Fog/Mist CLR 68 68     100%     30.02        
Jun 20 02:53 Calm 0.5 Fog CLR 67 67     100%     30.02 30.01      
Jun 20 02:48 Calm 0.5 Fog CLR 66 66     100%     30.02        
Jun 20 02:29 Calm 1.25 Fog/Mist CLR 68 68     100%     30.02        
Jun 20 02:18 Calm 2 Fog/Mist CLR 70 70     100%     30.02        
Jun 20 01:53 Calm 9 Clear CLR 69 69     100%     30.03 30.01      
Jun 20 00:53 Calm 10 Clear CLR 71 71     100%   73 30.04 30.03      
Jun 19 23:53 Calm 7 Clear CLR 70 70     100%     30.04 30.02      
Jun 19 22:53 E 3 10 Clear CLR 71 71     100%   73 30.02 30      
Jun 19 21:53 Calm 10 Clear CLR 71 71     100%   73 30 29.99      
Jun 19 20:53 Calm 10 Clear CLR 76 72     88%   77 29.99 29.97      
Jun 19 19:53 E 5 10 Clear CLR 80 74     82%   85 29.98 29.97      
Jun 19 18:53 6 10 Clear CLR 81 73     77%   86 29.97 29.96      
Jun 19 17:11 7 10 Partly Cloudy SCT017 SCT030 82 73     74%   87 29.96        
Jun 19 16:53 5 10 Mostly Cloudy FEW018 BKN028 81 73     77%   86 29.97 29.96      
Jun 19 15:53 Calm 10 Cloudy BKN020 OVC025 81 73     77%   86 29.97 29.96      
Jun 19 14:53 Calm 10 Cloudy OVC017 79 72     79%   82 30 29.98      
Jun 19 13:53 7 10 Cloudy OVC017 79 72     79%   82 30 29.98      
Jun 19 12:53 Calm 10 Cloudy OVC017 79 71     77%   82 30.01 29.99     0
Notice The following observation data may not be complete
Jun 19 12:04   10 Cloudy OVC015          %              
Jun 19 11:53 6 10 Cloudy OVC014 76 70     82%   77 30.01 30      
Jun 19 11:35 7 10 Mostly Cloudy BKN014 BKN019 76 70     82%   77 30        
Jun 19 09:53 7 10 Partly Cloudy SCT006 69 68     96%     29.99 29.98   0  
Jun 19 09:48 10 10 Partly Cloudy SCT006 70 68     94%     29.99        
Jun 19 08:53 8 10 Cloudy BKN005 BKN070 OVC080 68 68     100%     29.98 29.97 0    
Jun 19 08:51 10 10 Cloudy BKN005 BKN070 OVC080 66 66     100%     29.98   0    
Jun 19 08:29 8 10 Cloudy SCT005 BKN021 OVC080 67 67     100%     29.99   0    
Jun 19 07:53 NE 8 10 Light Rain BKN007 OVC085 69 69     100%     29.97 29.96 0    
Jun 19 07:49 7 10 Light Rain SCT007 BKN075 OVC090 70 70     100%     29.98   0    
Jun 19 07:33 NE 8 10 Light Rain BKN008 OVC070 71 71     100%   73 29.98   0    
Jun 19 07:21 NE 8 10 Light Rain SCT009 BKN065 OVC080 71 71     100%   73 29.98   0    
Jun 19 07:11 10 5 Light Rain and Fog/Mist SCT007 BKN012 OVC070 71 71     100%   73 29.97   0    
Jun 19 07:01 NE 11 8 Light Rain BKN007 BKN012 OVC021 71 71     100%   73 29.97   0    
Jun 19 06:53 N 10 9 Light Rain SCT007 BKN012 OVC021 71 71     100%   73 29.97 29.96 0   0
Jun 19 06:48 N 9 9 Light Rain FEW007 BKN012 OVC021 72 72     100%   73 29.96   0    
Jun 19 06:17 8 10 Light Rain BKN018 OVC023 72 72     100%   74 29.95   0    
Jun 19 05:53 Calm 10 Light Rain OVC014 73 71     94%   74 29.93 29.91 0    
Jun 19 04:53 6 10 Cloudy OVC012 73 71     94%   74 29.91 29.9      
Jun 19 04:18 6 10 Mostly Cloudy BKN011 BKN037 73 72     96%   75 29.91        
Jun 19 03:53 5 10 Cloudy OVC037 73 72     96%   75 29.9 29.88      
Jun 19 01:53 5 10 Clear CLR 73 72     96%   75 29.9 29.89      
Jun 19 00:53 5 10 Mostly Clear FEW110 74 72     94%   75 29.91 29.9      
Jun 18 21:53 E 3 10 Clear CLR 76 74     94%   78 29.87 29.85      
Jun 18 20:53 Calm 10 Clear CLR 78 75     90%   80 29.85 29.83      
Jun 18 19:53 Calm 10 Clear CLR 81 75     82%   87 29.83 29.81      
Jun 18 18:53 E 3 10 Clear CLR 81 74     79%   86 29.82 29.8      
Jun 18 17:53 6 10 Clear CLR 81 74     79%   86 29.83 29.82      
Jun 18 15:53 8 10 Clear CLR 85 75     72%   93 29.82 29.81      
Jun 18 14:53   10 Mostly Clear FEW023 83 75     77%   90 29.79 29.78      
Jun 18 13:53 SE 9 10 Clear CLR 83 75     77%   90 29.86 29.84      
Jun 18 10:39 5 10 Cloudy SCT017 OVC030 81 74     79%   86 29.89        
Jun 18 08:53 S 7 10 Clear   79 75     88%   83 29.85 29.83      
Jun 18 08:34 S 8 10 Mostly Cloudy SCT013 BKN026 79 75     88%   83 29.85        
Jun 18 07:53 S 7 10 Cloudy SCT011 OVC029 77 75     94%   79 29.86 29.84      
Jun 18 07:04 7 10 Cloudy BKN015 OVC025 76 75     97%   78 29.84        
Jun 18 06:53 S 8 10 Cloudy OVC014 76 75     97%   78 29.84 29.82      
Jun 18 05:53 S 6 10 Cloudy OVC011 75 75     100%   77 29.82 29.8      
Jun 18 05:38 WSW 5 10 Cloudy BKN009 OVC013 75 74     96%   77 29.81        
Jun 18 05:26 5 10 Mostly Cloudy BKN010 75 74     96%   77 29.8        
Jun 18 04:53 S 13 10 Clear CLR 75 74     96%   77 29.75 29.73      
Jun 18 03:53 S 11 10 Clear CLR 76 74     94%   78 29.76 29.74      
Jun 18 02:53 S 10 10 Clear CLR 77 74     90%   79 29.76 29.74      
Jun 18 01:53 S 5 10 Clear CLR 78 75     90%   80 29.76 29.74      
Jun 18 00:53 S 10 10 Clear CLR 79 75     88%   83 29.73 29.71      
Jun 17 22:53 7 10 Clear CLR 79 76     90%   83 29.74 29.72      
Jun 17 21:53 7 10 Clear CLR 78 76     93%   80 29.74 29.72      
Jun 17 20:53 SE 3 9 Clear CLR 80 77     90%   86 29.75 29.73      
Jun 17 19:53 SE 5 9 Mostly Cloudy BKN032 82 77     85%   90 29.74 29.72      
Jun 17 18:53 S 9 10 Mostly Clear FEW030 84 76     77%   93 29.73 29.71      
Jun 17 17:22 9 10 Cloudy SCT027 OVC036 85 75     72%   93 29.73        
Jun 17 16:53 WSW 13 10 Mostly Cloudy BKN027 85 75     72%   93 29.74        
Jun 17 15:53 S 16 10 Clear CLR 86 76     72%   96 29.66 29.64      
Jun 17 14:53 15 10 Clear CLR 85 74     70%   92 29.75 29.73      
Jun 17 13:53 S 11 10 Mostly Cloudy BKN030 85 73     68%   92 29.81 29.79      
Jun 17 12:53 S 7 10 Cloudy OVC028 84 72     67%   90 29.85 29.84      
Jun 17 12:08 S 8 10 Mostly Cloudy BKN027 84 73     70%   90 29.86        
Jun 17 11:53 S 8 10 Mostly Cloudy BKN026 83 72     70%   88 29.86 29.84      
Jun 17 10:53 3 10 Cloudy OVC022 81 73     77%   86 29.85 29.83      
Jun 17 09:53 11 10 Cloudy OVC019 80 73     79%   84 29.82 29.8      
Jun 17 09:06 13 10 Mostly Cloudy BKN015 80 74     82%   85 29.82        
Jun 17 08:53 9 7 Partly Cloudy SCT013 79 75     88%   83 29.83 29.81      
Jun 17 07:53 S 10 10 Clear CLR 77 75     94%   79 29.81 29.8      
Jun 17 06:53 S 6 7 Clear CLR 74 74     100%   76 29.81 29.79      
Jun 17 05:53 S 8 8 Clear CLR 74 74     100%   76 29.79 29.77      
Jun 17 04:53 7 9 Clear CLR 74 74     100%   76 29.77 29.75      
Jun 17 02:53 S 8 10 Clear CLR 77 72     84%   78 29.77 29.75      
Jun 17 01:53 5 10 Clear CLR 77 72     84%   78 29.78 29.76      
Jun 17 00:53 S 8 10 Clear CLR 79 72     79%   82 29.77 29.75      
Jun 16 22:53 S 8 10 Clear CLR 80 73     79%   84 29.8 29.78      
Jun 16 21:53 S 6 10 Clear CLR 83 73     72%   89 29.8 29.78      
Jun 16 20:53 6 10 Clear CLR 83 72     70%   88 29.79 29.77      
Jun 16 18:53 S 10 10 Clear CLR 89 70     53%   94 29.76 29.74      
Jun 16 16:53 S 9 10 Mostly Clear FEW045 91 72     54%   99 29.8 29.78      
Jun 16 15:53 S 8 10 Clear CLR 92 72     52%   100 29.82 29.8      
Jun 16 13:53 6 10 Clear CLR 91 72     54%   99 29.87 29.85      
Jun 16 12:53 WSW 14 10 Clear CLR 89 70     53%   94 29.88 29.86      
Jun 16 11:53 11 10 Clear CLR 89 71     55%   95 29.89 29.87      
Jun 16 10:53 WSW 10 10 Clear CLR 87 73     63%   95 29.9 29.88      
Jun 16 09:53 WSW 7 10 Clear CLR 83 74     74%   89 29.91 29.89      
Jun 16 08:53 WSW 7 10 Partly Cloudy SCT047 82 75     79%   89 29.92 29.9      
Jun 16 07:53 6 9 Partly Cloudy SCT035 76 75     97%   78 29.91 29.89      
Jun 16 06:53 Calm 7 Mostly Clear FEW030 74 74     100%   76 29.9 29.88      
Jun 16 04:53 Calm 10 Mostly Cloudy BKN046 75 74     96%   77 29.9 29.88      
Jun 16 03:53 Calm 10 Mostly Cloudy SCT049 BKN060 76 74     94%   78 29.91 29.89      
Jun 16 02:53 3 10 Mostly Cloudy BKN055 BKN070 78 74     87%   80 29.92 29.9      
Jun 16 01:53 S 5 10 Clear CLR 78 74     87%   80 29.89 29.88      
Jun 16 00:53 S 7 10 Clear CLR 79 74     85%   83 29.9 29.88      
Jun 15 22:53 SE 3 10 Clear CLR 78 73     85%   80 29.93 29.91      
Jun 15 21:53 5 10 Clear CLR 78 74     87%   80 29.91 29.89      
Jun 15 20:53 S 5 10 Clear CLR 81 74     79%   86 29.89 29.87      
Jun 15 19:53 6 10 Clear CLR 85 73     68%   92 29.88 29.86      
Jun 15 18:53 8 10 Clear CLR 88 72     59%   95 29.87 29.85      
Jun 15 16:53 S 11 10 Mostly Clear FEW041 90 72     56%   97 29.9 29.88      
Jun 15 14:53 8 10 Mostly Clear FEW040 89 71     55%   95 29.96 29.95      
Jun 15 11:53 Calm 10 Partly Cloudy SCT032 85 72     65%   91 30.03 30.01      
Jun 15 11:24 10 10 Mostly Cloudy SCT022 BKN030 85 73     68%   92 30.02        
Jun 15 10:53 10 10 Mostly Cloudy BKN022 84 73     70%   90 30.02 30.01      
Jun 15 09:53 9 10 Mostly Cloudy BKN018 82 74     77%   88 30.02 30.01      
Jun 15 09:14 11 10 Mostly Cloudy BKN015 81 75     82%   87 30.01        
Jun 15 08:53 WSW 9 10 Mostly Cloudy BKN011 80 75     85%   85 30.01 29.99      
Jun 15 08:34 9 10 Mostly Cloudy BKN011 79 75     88%   83 30        
Jun 15 07:53 8 9 Cloudy OVC008 77 75     94%   79 29.99 29.98      
Jun 15 07:43 6 9 Mostly Cloudy BKN008 77 76     96%   79 29.99        
Jun 15 07:28 6 9 Mostly Clear FEW007 77 75     94%   79 29.99        
Jun 15 06:53 9 7 Clear CLR 75 75     100%   77 29.97 29.95      
Jun 15 05:53 10 9 Clear CLR 75 75     100%   77 29.94 29.92      
Jun 15 04:53 9 9 Clear CLR 76 76     100%   78 29.93 29.92      
Jun 15 03:53 S 10 9 Clear CLR 76 76     100%   78 29.94 29.92      
Jun 15 02:53 S 7 10 Clear CLR 77 76     96%   79 29.94 29.92      
Jun 15 00:53 S 8 10 Clear CLR 78 75     90%   80 29.96 29.94      
Jun 14 23:53 S 6 10 Clear CLR 79 75     88%   83 29.97 29.95      
Jun 14 22:53 S 7 10 Clear CLR 81 74     79%   86 29.95 29.93      
Jun 14 20:53 5 10 Clear CLR 80 75     85%   85 29.92 29.9      
Jun 14 19:53 S 6 10 Clear CLR 85 75     72%   93 29.92 29.9      
Jun 14 18:53 S 8 10 Mostly Clear FEW039 88 74     63%   97 29.91 29.89      
Jun 14 17:53 8 10 Mostly Clear FEW040 88 73     61%   96 29.91 29.89      
Jun 14 15:53 S 11 10 Clear CLR 89 74     61%   98 29.93 29.92      
Jun 14 14:53 11 10 Mostly Cloudy BKN039 BKN055 88 74     63%   97 29.96 29.94      
Jun 14 13:53 S 9 10 Mostly Cloudy BKN075 86 73     65%   93 29.98 29.96      
Jun 14 12:53 8 10 Cloudy OVC070 85 75     72%   93 30 29.98 0   0
Jun 14 11:53 S 10 10 Cloudy FEW025 BKN040 OVC060 83 75     77%   90 30.01 29.99 0    
Jun 14 10:53 10 10 Cloudy FEW022 BKN035 OVC044 83 74     74%   89 30.01 29.99      
Jun 14 09:53 S 13 10 Mostly Cloudy BKN019 BKN024 82 75     79%   89 30.01 29.99      
Jun 14 09:03 S 10 10 Mostly Cloudy BKN015 80 75     85%   85 30.01        
Jun 14 08:53 S 10 10 Mostly Clear FEW012 80 75     85%   85 30.01 29.99      
Jun 14 07:53 S 7 10 Cloudy BKN033 OVC041 77 75     94%   79 30 29.98      
Jun 14 07:09 S 5 9 Cloudy FEW017 OVC030 76 75     97%   78 29.99        
Jun 14 06:53 S 6 8 Cloudy FEW015 OVC028 75 75     100%   77 29.98 29.96      
Jun 14 05:53 S 5 10 Cloudy FEW016 OVC022 75 74     96%   77 29.96 29.94      
Jun 14 04:53 S 8 10 Mostly Cloudy BKN015 BKN021 75 74     96%   77 29.95 29.93      
Jun 14 03:53 S 8 10 Mostly Cloudy BKN013 76 74     94%   78 29.94 29.92      
Jun 14 03:44 S 9 10 Mostly Cloudy BKN013 75 74     96%   77 29.93        
Jun 14 02:53 S 8 10 Clear CLR 75 74     96%   77 29.93 29.91      
Jun 14 01:53 S 7 10 Clear CLR 76 73     91%   77 29.93 29.91      
Jun 14 00:53 S 11 10 Clear CLR 77 73     88%   79 29.93 29.92      
Jun 13 23:53 S 9 10 Clear CLR 78 73     85%   80 29.94 29.92      
Jun 13 22:53 9 10 Clear CLR 79 73     82%   82 29.94 29.93      
Jun 13 21:53 7 10 Clear CLR 80 73     79%   84 29.94 29.92      
Jun 13 20:53 SE 5 10 Clear CLR 80 74     82%   85 29.91 29.89      
Jun 13 18:53 S 10 10 Clear CLR 86 74     67%   94 29.9 29.88     0
Jun 13 16:53 S 7 10 Mostly Clear FEW033 86 77     75%   97 29.92 29.91      
Jun 13 15:53 S 8 10 Clear CLR 84 77     80%   94 29.93 29.91 0 0  
Jun 13 15:19 S 7 6 Light Rain and Fog/Mist SCT038 BKN080 OVC110 79 78     97%   83 29.95   0    
Jun 13 15:09 15 2 Heavy Rain and Fog/Mist FEW034 SCT055 BKN090 76 75     97%   78 29.96   0    
Jun 13 14:53   10 Mostly Cloudy FEW025 BKN034 86 74     67%   94 29.96 29.94 0    
Jun 13 13:53 13 10 Mostly Cloudy FEW029 SCT034 BKN048 86 74     67%   94 29.97 29.95      
Jun 13 12:53 S 16 10 Mostly Cloudy SCT027 BKN037 BKN047 84 74     72%   91 29.99 29.97      
Jun 13 11:53 S 11 10 Mostly Cloudy SCT022 SCT034 BKN047 84 74     72%   91 30 29.98      
Jun 13 11:00 SE 13 10 Cloudy SCT021 BKN037 OVC047 82 74     77%   88 30.01        
Jun 13 10:53 S 10 10 Cloudy SCT020 BKN027 OVC047 81 74     79%   86 30.02 30      
Jun 13 09:53 S 10 10 Mostly Cloudy BKN017 BKN022 80 74     82%   85 30.02 30.01      
Jun 13 09:33 S 8 10 Mostly Cloudy SCT013 BKN020 BKN036 80 74     82%   85 30.02        
Jun 13 09:25 11 10 Mostly Cloudy SCT013 SCT020 BKN036 80 74     82%   85 30.02        
Jun 13 09:03 S 10 10 Mostly Cloudy BKN011 BKN035 78 74     87%   80 30.02        
Jun 13 08:56 S 10 10 Mostly Cloudy SCT011 BKN035 78 74     87%   80 30.03        
Jun 13 08:53 11 10 Mostly Cloudy SCT010 BKN032 79 74     85%   83 30.02 30.01      
Jun 13 06:53 6 10 Cloudy SCT006 OVC026 74 73     97%   76 29.99 29.98      
Jun 13 05:53 6 7 Cloudy BKN007 BKN012 OVC023 73 73     100%   75 29.99 29.97      
Jun 13 05:12 S 8 10 Cloudy BKN008 OVC016 73 73     100%   75 29.98        
Jun 13 04:53 S 7 10 Cloudy SCT008 OVC016 73 73     100%   75 29.98 29.96      
Jun 13 04:51 S 7 10 Cloudy SCT008 OVC016 73 73     100%   75 29.97        
Jun 13 03:53 7 10 Cloudy OVC006 73 72     96%   75 29.97 29.95      
Jun 13 03:33 6 10 Cloudy BKN006 OVC012 72 72     100%   74 29.96        
Jun 13 02:53 SE 6 10 Cloudy FEW006 OVC012 72 72     100%   74 29.96 29.94      
Jun 13 02:38 3 10 Mostly Cloudy FEW006 BKN013 72 72     100%   74 29.97        
Jun 13 02:27 E 5 10 Partly Cloudy FEW006 SCT014 72 72     100%   74 29.96        
Jun 13 01:53 SE 7 10 Clear CLR 73 72     96%   75 29.96 29.94      
Jun 13 00:53 S 6 10 Clear CLR 74 72     94%   75 29.97 29.95      
Jun 12 23:53 S 9 10 Clear CLR 75 72     90%   76 29.98 29.96      
Jun 12 22:53 10 10 Clear CLR 76 72     88%   77 29.98 29.96      
Jun 12 21:53 S 14 10 Mostly Clear FEW060 FEW090 78 71     79%   79 29.98 29.96      
Jun 12 20:53 SE 7 10 Clear CLR 81 74     79%   86 29.95 29.93      
Jun 12 18:53 S 11 10 Clear CLR 86 72     63%   92 29.93 29.91      
Jun 12 17:53 9 10 Partly Cloudy FEW045 SCT075 SCT095 87 73     63%   95 29.92 29.9      
Jun 12 16:53 S 11 10 Mostly Clear FEW041 FEW050 89 73     59%   97 29.93 29.91      
Jun 12 15:53 10 10 Mostly Clear FEW037 90 75     62%   101 29.95 29.93      
Jun 12 14:53 9 10 Mostly Clear FEW036 89 75     63%   99 29.96 29.94      
Jun 12 13:53 13 10 Mostly Clear FEW035 87 74     65%   95 29.98 29.96      
Jun 12 12:53 S 8 10 Mostly Cloudy SCT024 SCT033 BKN055 85 74     70%   92 30.01 29.99      
Jun 12 11:53 8 10 Mostly Cloudy SCT023 SCT028 BKN042 84 74     72%   91 30.02 30.01      
Jun 12 10:53 S 9 10 Mostly Cloudy FEW021 SCT027 BKN041 81 74     79%   86 30.03 30.01      
Jun 12 10:48 8 10 Mostly Cloudy SCT021 SCT029 BKN041 81 73     79%   85 30.03        
Jun 12 10:14 S 11 10 Mostly Cloudy SCT015 BKN020 82 75     79%   89 30.03        
Jun 12 09:53 11 10 Mostly Cloudy BKN012 81 75     82%   87 30.03 30.01      
Jun 12 09:24 S 11 10 Cloudy OVC012 78 74     87%   80 30.03        
Jun 12 08:53 SE 11 10 Cloudy OVC009 76 74     94%   78 30.03 30.01      
Jun 12 08:40 10 10 Cloudy BKN010 OVC018 76 74     94%   78 30.02        
Jun 12 08:33 SE 9 10 Cloudy BKN008 BKN012 OVC049 76 74     94%   78 30.02        
Jun 12 08:28 SE 9 10 Cloudy BKN010 BKN018 OVC050 76 74     94%   78 30.02        
Jun 12 07:53 10 10 Cloudy OVC008 75 74     96%   77 30.01 30      
Jun 12 07:13 SE 10 10 Cloudy BKN007 OVC034 75 74     96%   77 29.99        
Jun 12 06:53 SE 7 9 Cloudy SCT007 OVC032 75 74     96%   77 29.99 29.97      
Jun 12 06:43 SE 5 9 Cloudy FEW007 OVC030 75 74     96%   77 29.99        
Jun 12 06:28 SE 5 8 Cloudy SCT008 OVC028 74 74     100%   76 29.98        
Jun 12 06:01 S 6 9 Cloudy BKN008 OVC021 75 74     96%   77 29.98        
Jun 12 05:53 5 9 Cloudy SCT008 OVC021 75 74     96%   77 29.98 29.96      
Jun 12 05:26 S 6 9 Cloudy SCT008 OVC018 75 74     96%   77 29.97        
Jun 12 04:53 7 10 Cloudy OVC016 75 74     96%   77 29.97 29.95      
Jun 12 04:22 7 10 Cloudy BKN011 OVC014 75 74     96%   77 29.97        
Jun 12 04:03 S 8 10 Cloudy OVC009 75 74     96%   77 29.97        
Jun 12 03:53 S 7 10 Cloudy OVC011 75 74     96%   77 29.97 29.95      
Jun 12 03:30 S 9 10 Cloudy OVC010 75 74     96%   77 29.97        
Jun 12 02:53 SE 8 10 Cloudy OVC009 74 73     97%   76 29.97 29.96      
Jun 12 01:53 SE 10 10 Mostly Cloudy BKN009 73 73     100%   75 29.98 29.96      
Jun 12 01:31 13 10 Mostly Clear FEW009 73 73     100%   75 29.98        
Jun 12 00:53 SE 9 10 Clear CLR 74 73     97%   76 29.97 29.95      
Jun 11 23:53 SE 7 10 Clear CLR 74 73     97%   76 29.96 29.95      
Jun 11 22:53 6 10 Clear CLR 75 74     96%   77 29.96 29.94      
Jun 11 21:53 SE 9 10 Clear CLR 77 73     88%   79 29.95 29.93      
Jun 11 20:53 8 10 Mostly Cloudy FEW043 BKN060 79 73     82%   82 29.96 29.94      
Jun 11 19:53 SE 6 10 Mostly Clear FEW060 83 70     65%   87 29.93 29.92      
Jun 11 18:53 7 10 Clear CLR 86 69     57%   90 29.93 29.91      
Jun 11 17:53 SE 6 10 Clear CLR 87 68     53%   91 29.93 29.92      
Jun 11 16:53 13 10 Clear CLR 88 65     47%   90 29.95 29.93      
Jun 11 15:53 8 10 Clear CLR 88 65     47%   90 29.96 29.94      
Jun 11 14:53 11 10 Clear CLR 87 66     50%   89 29.98 29.96      
Jun 11 13:53 13 10 Clear CLR 86 65     50%   88 30 29.98      
Jun 11 12:53 SE 11 10 Mostly Clear FEW043 84 67     57%   87 30.01 29.99      
Jun 11 11:53 S 13 10 Clear CLR 84 67     57%   87 30.01 30      
Jun 11 10:53 S 9 10 Clear CLR 82 67     60%   85 30.01 29.99      
Jun 11 09:53 S 9 10 Clear CLR 80 69     69%   83 30.01 30      
Jun 11 08:53 S 9 10 Clear CLR 78 69     74%   79 30.01 30      
Jun 11 07:53 9 10 Clear CLR 74 71     91%   75 30 29.98      
Jun 11 06:53 S 8 10 Clear CLR 71 69     93%   72 29.99 29.97      
Jun 11 05:53 6 10 Clear CLR 69 69     100%     29.98 29.97      
Jun 11 04:53 S 7 10 Clear CLR 70 69     97%     29.96 29.95      
Jun 11 03:53 S 8 10 Clear CLR 72 69     91%   73 29.96 29.94      
Jun 11 02:53 S 8 10 Clear CLR 73 69     87%   74 29.96 29.95      
Jun 11 01:53 9 10 Clear CLR 73 69     87%   74 29.96 29.95      
Jun 11 00:53 SE 9 10 Clear CLR 73 67     81%   74 29.96 29.94      
Jun 10 23:53 SE 7 10 Clear CLR 73 65     76%   74 29.95 29.94      
Jun 10 22:53 SE 5 10 Clear CLR 73 64     73%   73 29.95 29.93      
Jun 10 21:53 SE 6 10 Clear CLR 72 64     76%   72 29.93 29.91      
Jun 10 20:53 SE 5 10 Clear CLR 75 65     71%   76 29.91 29.9      
Jun 10 19:53 SE 3 10 Clear CLR 79 64     60%   79 29.91 29.89      
Jun 10 18:53 9 10 Clear CLR 82 62     51%   83 29.91 29.89      
Jun 10 17:53 11 10 Clear CLR 84 63     49%   85 29.91 29.9      
Jun 10 16:53 11 10 Mostly Clear FEW050 85 63     48%   86 29.92 29.91      
Jun 10 15:53 S 9 10 Mostly Clear FEW049 85 64     50%   86 29.93 29.92      
Jun 10 14:53 S 11 10 Mostly Clear FEW048 83 64     53%   84 29.95 29.93      
Jun 10 13:53 S 9 10 Mostly Cloudy BKN050 81 64     56%   83 29.96 29.94      
Jun 10 12:53 9 10 Mostly Clear FEW045 83 65     55%   85 29.97 29.95      
Jun 10 12:16 17 10 Partly Cloudy SCT043 83 64     53%   84 29.98        
Jun 10 11:53 S 9 10 Mostly Clear FEW044 83 64     53%   84 29.98 29.96      
Jun 10 10:53 S 10 10 Mostly Clear FEW037 81 65     58%   83 29.98 29.96      
Jun 10 09:53 9 10 Clear CLR 78 65     64%   79 29.98 29.96      
Jun 10 08:53 9 10 Clear CLR 74 65     74%   74 29.97 29.96      
Jun 10 07:53 S 9 10 Clear CLR 70 63     78%     29.96 29.94      
Jun 10 06:53 6 10 Clear CLR 65 62     90%     29.94 29.93      
Jun 10 04:53 3 10 Clear CLR 62 61     96%     29.92 29.91      
Jun 10 03:53 SE 3 10 Clear CLR 64 61     90%     29.91 29.89      
Jun 10 02:53 SE 5 10 Clear CLR 64 62     93%     29.91 29.9      
Jun 10 01:53 SE 3 10 Clear CLR 64 61     90%     29.92 29.9      
Jun 10 00:53 SE 5 10 Clear CLR 66 61     84%     29.93 29.91      
Jun 09 23:53 S 5 10 Clear CLR 66 62     87%     29.93 29.92      
Jun 09 22:53 3 10 Clear CLR 66 62     87%     29.92 29.91      
Jun 09 21:53 SE 5 10 Clear CLR 70 61     73%     29.9 29.88      
Jun 09 20:53 3 10 Clear CLR 70 64     81%     29.89 29.88      
Jun 09 19:53 Calm 10 Clear CLR 73 66     79%   74 29.9 29.89      
Jun 09 18:53 3 10 Mostly Clear FEW055 79 61     54%   79 29.89 29.87      
Jun 09 17:53 5 10 Clear CLR 81 57     44%   81 29.89 29.88      
Jun 09 16:53 5 10 Clear CLR 81 57     44%   81 29.9 29.89      
Jun 09 15:53 Calm 10 Clear CLR 83 56     40%   82 29.92 29.9      
Jun 09 13:53 3 10 Clear CLR 81 55     41%   81 29.96 29.94      
Jun 09 12:53 6 10 Mostly Clear FEW060 80 55     42%   80 29.97 29.96      
Jun 09 11:53 WSW 6 10 Clear CLR 80 52     38%   80 29.98 29.96      
Jun 09 10:53 SE 7 10 Clear CLR 78 58     50%   78 29.98 29.97      
Jun 09 10:09 SE 5 10 Clear CLR 75 61     62%   75 29.98        
Jun 09 09:53 5 10 Clear CLR 75 60     60%   75 29.98 29.97      
Jun 09 08:53 SE 5 10 Clear CLR 73 60     64%   73 29.98 29.97      
Jun 09 07:53 Calm 10 Clear CLR 68 61     78%     29.97 29.96      
Jun 09 06:53 Calm 10 Clear CLR 66 58     75%     29.96 29.94      
Jun 09 04:53 SE 8 10 Clear CLR 64 57     78%     29.92 29.91      
Jun 09 03:53 5 10 Clear CLR 63 58     84%     29.92 29.9      
Jun 09 02:53 E 3 10 Clear   63 59     87%     29.93 29.91      
Jun 09 01:53 SE 5 10 Clear CLR 63 58     84%     29.92 29.91      
Jun 09 00:53 6 10 Clear CLR 68 55     63%     29.93 29.92      
Jun 08 23:53 6 10 Clear CLR 66 57     73%     29.93 29.92      
Jun 08 22:53 SE 3 10 Clear CLR 69 56     63%     29.93 29.92      
Jun 08 21:53 SE 5 10 Clear CLR 68 57     68%     29.92 29.9      
Jun 08 20:53 Calm 10 Clear CLR 68 60     76%     29.91 29.9      
Jun 08 19:53 Calm 10 Clear CLR 74 62     66%   74 29.92 29.9      
Jun 08 18:53 6 10 Clear CLR 80 56     44%   80 29.91 29.9      
Jun 08 16:53 N 6 10 Clear CLR 83 54     37%   82 29.93 29.92      
Jun 08 15:53 5 10 Mostly Clear FEW065 84 54     36%   83 29.95 29.93      
Jun 08 14:53 3 10 Clear CLR 80 52     38%   80 29.97 29.96      
Jun 08 13:53 3 10 Clear CLR 82 53     37%   81 30 29.98      
Jun 08 12:53 Calm 10 Clear CLR 80 53     39%   80 30.01 30      
Jun 08 11:53 5 10 Mostly Clear FEW055 79 54     42%   79 30.02 30.01      
Jun 08 10:53   10 Clear CLR 78 58     50%   78 30.03 30.02      
Jun 08 09:53 5 10 Clear CLR 76 57     52%   76 30.04 30.02      
Jun 08 08:53 Calm 10 Clear CLR 70 61     73%     30.04 30.03      
Jun 08 07:53 NE 5 10 Clear CLR 65 61     87%     30.03 30.01      
Jun 08 06:53 Calm 10 Clear CLR 59 59     100%     30.01 29.99      
Jun 08 05:53 Calm 10 Clear CLR 58 57     97%     29.98 29.97      
Jun 08 04:53 NE 5 10 Clear CLR 58 58     100%     29.97 29.96      
Jun 08 03:53 Calm 10 Clear CLR 59 58     96%     29.97 29.96      
Jun 08 02:53 3 10 Clear CLR 59 58     96%     29.98 29.96      
Jun 08 01:53 Calm 10 Clear CLR 60 58     93%     29.98 29.96      
Jun 08 00:53 E 3 10 Clear CLR 61 59     93%     29.98 29.96      
Jun 07 23:53 E 3 10 Clear CLR 64 58     81%     29.98 29.97      
Jun 07 22:53 Calm 10 Clear CLR 64 60     87%     29.98 29.97      
Jun 07 21:53 Calm 10 Clear CLR 68 59     73%     29.97 29.95      
Jun 07 20:53 5 10 Clear CLR 72 59     64%   72 29.96 29.94      
Jun 07 19:53 3 10 Clear CLR 76 60     58%   76 29.95 29.93      
Jun 07 18:53 NE 6 10 Partly Cloudy SCT060 80 59     49%   81 29.94 29.92      
Jun 07 17:53 E 6 10 Clear CLR 81 59     47%   81 29.94 29.93      
Jun 07 16:53 NE 8 10 Clear CLR 81 57     44%   81 29.95 29.93      
Jun 07 15:53 NE 5 10 Clear CLR 83 56     40%   82 29.95 29.93      
Jun 07 14:53 N 11 10 Clear CLR 84 55     37%   83 29.95 29.94      
Jun 07 13:53 10 10 Clear CLR 83 58     43%   83 29.96 29.95      
Jun 07 12:53 6 10 Clear CLR 81 57     44%   81 29.97 29.96      
Jun 07 11:53 9 10 Clear CLR 80 59     49%   81 29.98 29.96      
Jun 07 10:53 NE 8 10 Clear CLR 78 61     56%   78 29.98 29.96      
Jun 07 09:53 7 10 Clear CLR 75 60     60%   75 29.98 29.96      
Jun 07 08:53 8 10 Clear CLR 73 59     61%   73 29.97 29.96      
Jun 07 07:53 8 10 Clear CLR 70 61     73%     29.95 29.93      
Jun 06 13:53 NE 13 10 Mostly Clear FEW044 86 68     55%   89 29.81 29.8      
Jun 06 12:53 15 10 Mostly Cloudy BKN037 BKN045 84 69     61%   88 29.82 29.81      
Jun 06 11:53 NE 10 10 Partly Cloudy SCT030 SCT037 83 70     65%   87 29.84 29.82      
Jun 06 10:53 9 10 Partly Cloudy SCT025 SCT031 79 70     74%   82 29.83 29.82      
Jun 06 09:53 NE 9 10 Mostly Clear FEW018 77 70     79%   78 29.84 29.83      
Jun 06 09:43 9 10 Partly Cloudy SCT018 76 71     85%   77 29.85        
Jun 06 08:53 9 10 Mostly Cloudy BKN010 74 70     87%   75 29.84 29.82      
Jun 06 07:53 NE 9 10 Cloudy OVC007 71 70     96%   72 29.83 29.81      
Jun 06 07:00 N 6 10 Mostly Cloudy BKN009 BKN021 69 69     100%     29.82        
Jun 06 06:53 N 5 10 Partly Cloudy SCT020 69 69     100%     29.82 29.8      
Jun 06 06:25 5 10 Clear CLR 69 69     100%     29.81        
Jun 06 06:15 5 10 Partly Cloudy FEW008 SCT023 69 69     100%     29.81        
Jun 06 05:53 N 7 10 Cloudy FEW008 OVC021 69 69     100%     29.81 29.79      
Jun 06 05:22 6 10 Mostly Cloudy FEW008 BKN021 69 69     100%     29.8        
Jun 06 04:53 N 8 10 Cloudy OVC018 70 70     100%     29.8 29.78      
Jun 06 03:53 6 10 Cloudy OVC018 70 70     100%     29.79 29.78      
Jun 06 02:53 6 10 Cloudy FEW007 OVC016 70 70     100%     29.8 29.78      
Jun 06 02:41 6 10 Cloudy FEW007 OVC014 70 70     100%     29.8        
Jun 06 02:32 3 10 Cloudy SCT010 OVC016 70 70     100%     29.8        
Jun 06 02:16 3 10 Cloudy BKN012 OVC021 70 70     100%     29.8        
Jun 06 01:53 5 10 Cloudy BKN008 OVC018 70 70     100%     29.8 29.78      
Jun 06 01:20 5 10 Mostly Cloudy BKN009 70 70     100%     29.79        
Jun 06 00:53 3 10 Mostly Clear FEW008 70 70     100%     29.79 29.78      
Jun 05 23:53 6 10 Clear CLR 70 70     100%     29.79 29.77      
Jun 05 22:53 6 10 Clear CLR 71 70     96%   72 29.79 29.77      
Jun 05 21:53 8 10 Clear   72 71     97%   73 29.77 29.75      
Jun 05 20:53 SE 3 10 Mostly Clear FEW075 73 72     96%   75 29.75 29.74      
Jun 05 20:37 E 3 10 Mostly Cloudy FEW015 SCT021 BKN065 73 73     100%   75 29.76        
Jun 05 20:22 6 10 Mostly Cloudy SCT016 BKN022 BKN030 74 72     94%   75 29.76        
Jun 05 19:53 E 5 10 Mostly Clear FEW018 74 72     94%   75 29.75 29.74      
Jun 05 18:53 E 3 10 Mostly Clear FEW050 77 71     82%   78 29.74 29.72      
Jun 05 18:13 NE 9 10 Clear CLR 78 71     79%   79 29.72        
Jun 05 17:53 N 10 10 Mostly Clear FEW036 82 70     67%   86 29.72 29.71      
Jun 05 16:53 3 10 Clear CLR 83 68     61%   86 29.71 29.7      
Jun 05 15:53 5 10 Mostly Cloudy FEW033 BKN041 BKN048 84 70     63%   88 29.73 29.72      
Jun 05 14:53 Calm 10 Mostly Cloudy SCT028 BKN037 80 70     71%   83 29.74 29.73      
Jun 05 13:53 3 10 Mostly Cloudy SCT029 BKN041 BKN050 80 70     71%   83 29.77 29.75      
Jun 05 13:38 Calm 10 Cloudy FEW024 BKN029 OVC048 79 69     72%   80 29.77        
Jun 05 12:53 Calm 10 Cloudy SCT023 OVC037 78 69     74%   79 29.78 29.77      
Jun 05 11:53 Calm 10 Mostly Cloudy BKN019 BKN026 76 69     79%   77 29.79 29.78      
Jun 05 10:53 6 10 Cloudy OVC015 73 70     90%   74 29.79 29.78      
Jun 05 09:53 W 5 10 Cloudy OVC009 72 70     93%   73 29.8 29.79      
Jun 05 08:53 W 5 10 Cloudy OVC005 71 70     96%   72 29.8 29.79      
Jun 05 07:53 6 10 Cloudy OVC006 70 70     100%     29.79 29.78      
Jun 05 06:53 S 5 10 Cloudy OVC005 69 69     100%     29.79 29.78     0
Jun 05 06:17 Calm 10 Mostly Cloudy BKN005 69 69     100%     29.79        
Jun 05 05:53 Calm 10 Mostly Clear FEW006 68 68     100%     29.78 29.77      
Jun 05 05:23 7 10 Mostly Cloudy SCT006 SCT011 BKN041 69 69     100%     29.78        
Jun 05 04:53 8 10 Cloudy BKN005 OVC011 69 69     100%     29.78 29.76      
Jun 05 03:53 S 8 10 Cloudy OVC007 70 70     100%     29.78 29.76 0 0  
Jun 05 02:53 9 10 Cloudy BKN007 OVC016 70 70     100%     29.79 29.77      
Jun 05 01:53 S 8 10 Cloudy SCT007 BKN017 OVC031 71 71     100%   73 29.79 29.77      
Jun 05 01:45 S 8 10 Cloudy FEW007 BKN017 OVC030 71 71     100%   73 29.79        
Jun 05 01:34 S 8 10 Cloudy BKN015 BKN023 OVC040 71 71     100%   73 29.79        
Jun 05 01:17 S 7 10 Cloudy FEW008 BKN012 OVC024 71 71     100%   73 29.79        
Jun 05 00:53 Calm 10 Cloudy BKN010 OVC019 70 70     100%     29.79 29.77      
Jun 05 00:01 Calm 10 Clear   69 69     100%     29.78        
Jun 04 23:53 E 3 9 Clear   68 68     100%     29.78 29.77      
Jun 04 23:29 Calm 10 Partly Cloudy SCT016 69 69     100%     29.78        
Jun 04 22:53 Calm 10 Cloudy OVC017 71 70     96%   72 29.79 29.78      
Jun 04 22:27 Calm 10 Mostly Cloudy BKN018 69 69     100%     29.79        
Jun 04 21:53 Calm 10 Clear CLR 69 69     100%     29.78 29.76      
Jun 04 20:53 Calm 10 Mostly Clear FEW060 70 69     97%     29.78 29.76      
Jun 04 19:53 Calm 10 Mostly Clear FEW060 72 69     91%   73 29.78 29.76      
Jun 04 18:53 W 5 10 Partly Cloudy SCT110 73 69     87%   74 29.77 29.75 0   0
Jun 04 17:23 S 6 10 Cloudy SCT020 BKN060 OVC075 77 69     77%   78 29.78        
Jun 04 16:53 3 10 Mostly Cloudy BKN019 BKN038 76 70     82%   77 29.79 29.77      
Jun 04 16:42 3 10 Mostly Cloudy SCT019 BKN038 79 72     79%   82 29.79        
Jun 04 16:23 S 7 10 Mostly Cloudy FEW019 BKN038 78 72     82%   79 29.79        
Jun 04 15:53 9 10 Partly Cloudy FEW015 SCT040 78 73     85%   80 29.79 29.78      
Jun 04 15:37 S 8 10 Mostly Cloudy FEW016 SCT022 BKN040 78 73     85%   80 29.8        
Jun 04 15:12 S 11 10 Cloudy SCT016 OVC022 78 73     85%   80 29.8        
Jun 04 14:53 SE 9 10 Cloudy BKN014 OVC022 78 74     87%   80 29.81 29.79      
Jun 04 14:46 SE 9 10 Cloudy BKN014 OVC023 78 74     87%   80 29.81        
Jun 04 14:25 6 10 Cloudy SCT014 BKN020 OVC033 78 73     85%   80 29.82        
Jun 04 13:53 6 10 Mostly Clear FEW019 80 72     76%   84 29.83 29.81      
Jun 04 12:53 S 10 10 Mostly Cloudy FEW012 BKN050 78 74     87%   80 29.84 29.83 0   0
Jun 04 11:53 S 8 10 Light Rain FEW043 SCT075 BKN100 75 74     96%   77 29.85 29.84 0    
Jun 04 11:09 9 9 Light Rain SCT016 SCT031 OVC085 75 73     94%   77 29.87   0    
Jun 04 10:53 10 10 Cloudy BKN017 OVC021 77 73     88%   79 29.87 29.85      
Jun 04 09:53 10 10 Mostly Cloudy BKN020 79 72     79%   82 29.86 29.85      
Jun 04 08:53 8 10 Clear CLR 76 73     91%   77 29.85 29.84      
Jun 04 07:53 S 6 8 Mostly Clear FEW003 72 72     100%   74 29.87 29.86      
Jun 04 07:45 S 5 8 Mostly Cloudy SCT003 BKN049 BKN085 71 71     100%   73 29.87        
Jun 04 07:11 S 7 5 Fog/Mist OVC002 71 71     100%   73 29.87        
Jun 04 07:02 7 2 Fog/Mist OVC002 71 71     100%   73 29.87        
Jun 04 06:53 9 1 Fog/Mist OVC002 71 71     100%   73 29.86 29.85     0
Jun 04 06:44 SE 7 1.25 Fog/Mist OVC002 70 70     100%     29.86        
Jun 04 06:34 5 2 Fog/Mist OVC002 70 70     100%     29.86        
Jun 04 05:53 5 5 Fog/Mist OVC003 70 70     100%     29.84 29.83      
Jun 04 05:29 5 5 Fog/Mist OVC004 71 71     100%   73 29.85        
Jun 04 04:53 Calm 7 Cloudy OVC006 71 71     100%   73 29.85 29.84 0    
Jun 04 04:29 3 7 Cloudy BKN009 OVC016 71 71     100%   73 29.86   0    
Jun 04 04:10 Calm 3 Light Rain and Fog/Mist SCT003 BKN011 OVC015 70 70     100%     29.86   0    
Jun 04 04:01 Calm 1.75 Heavy Rain and Fog/Mist SCT003 BKN010 OVC013 70 70     100%     29.86   0    
Jun 04 03:53 Calm 7 Cloudy BKN003 OVC015 71 71     100%   73 29.87 29.85      
Jun 04 03:35 3 7 Cloudy FEW002 OVC017 70 70     100%     29.87        
Jun 04 02:53 Calm 7 Cloudy BKN023 OVC032 71 71     100%   73 29.87 29.86      
Jun 04 02:29 Calm 7 Mostly Cloudy BKN028 BKN035 70 70     100%     29.87        
Jun 04 01:53 5 7 Clear CLR 71 71     100%   73 29.87 29.85      
Jun 04 01:12 3 7 Mostly Clear FEW005 71 71     100%   73 29.88        
Jun 04 00:53 NE 5 9 Clear CLR 70 70     100%     29.89 29.87      
Jun 03 23:53 3 10 Clear CLR 72 72     100%   74 29.9 29.89      
Jun 03 22:53 SE 3 8 Clear CLR 72 72     100%   74 29.91 29.9      
Jun 03 21:53 E 3 10 Clear CLR 74 74     100%   76 29.91 29.89      
Jun 03 20:53 Calm 10 Mostly Cloudy BKN090 75 74     96%   77 29.9 29.88      
Jun 03 19:53 Calm 10 Mostly Clear FEW090 75 75     100%   77 29.89 29.88      
Jun 03 18:53 Calm 10 Clear CLR 76 74     94%   78 29.88 29.87     1
Jun 03 17:53 Calm 10 Clear CLR 76 73     91%   77 29.91 29.9      
Jun 03 16:53 5 10 Clear CLR 75 74     96%   77 29.91 29.9      
Jun 03 16:05 NE 3 10 Mostly Clear FEW004 74 74     100%   76 29.91        
Jun 03 15:53 6 10 Clear CLR 74 74     100%   76 29.92 29.91 0 1  
Jun 03 15:34 NE 5 10 Mostly Clear FEW004 FEW120 73 73     100%   75 29.93   0    
Jun 03 15:15 6 10 Light Rain FEW004 SCT015 BKN060 72 72     100%   74 29.94   0    
Jun 03 15:12 NE 7 9 Light Rain SCT015 BKN060 BKN120 72 72     100%   74 29.94   0    
Jun 03 15:08 NE 7 3 Light Rain and Fog/Mist BKN015 BKN060 OVC120 71 71     100%   73 29.94   0    
Jun 03 15:06 NE 9 1.5 Light Rain and Fog/Mist BKN015 OVC060 71 71     100%   73 29.94   0    
Jun 03 14:53 NE 13 0.5 Heavy Rain and Fog BKN017 BKN030 OVC042 70 70     100%     29.94 29.93 1    
Jun 03 14:46 11 0.5 Heavy Rain and Fog BKN017 BKN028 OVC042 71 71     100%   73 29.96   1    
Jun 03 14:39 NE 10 1 Thunderstorms and Heavy Rain and Fog/Mist SCT015 BKN029 OVC042 71 71     100%   73 29.95   0    
Jun 03 14:37 10 2 Thunderstorms and Rain and Fog/Mist FEW013 BKN029 OVC042 71 71     100%   73 29.95   0    
Jun 03 14:21 9 10 Light Rain FEW013 BKN027 OVC042 74 72     94%   75 29.94   0    
Jun 03 13:53 N 5 10 Cloudy SCT032 BKN043 OVC075 80 73     79%   84 29.93 29.92      
Jun 03 12:53 NNW 5 10 Mostly Cloudy FEW045 BKN060 BKN090 82 73     74%   87 29.95 29.93 0   0
Jun 03 12:17 NNW 6 10 Mostly Cloudy SCT022 SCT041 BKN055 82 74     77%   88 29.96   0    
Jun 03 11:53 6 10 Light Rain BKN020 OVC033 79 73     82%   82 29.98 29.96 0    
Jun 03 11:16 Calm 10 Mostly Cloudy BKN020 BKN025 81 72     74%   85 29.99        
Jun 03 10:53 Calm 10 Mostly Clear FEW018 81 73     77%   86 29.98 29.97      
Jun 03 09:53 E 6 10 Partly Cloudy SCT090 76 71     85%   77 29.99 29.98      
Jun 03 08:53 3 10 Partly Cloudy SCT090 72 70     93%   73 29.99 29.98      
Jun 03 07:53 5 10 Partly Cloudy SCT003 69 69     100%     29.98 29.97      
Jun 03 07:29 Calm 10 Mostly Clear FEW004 69 69     100%     29.98        
Jun 03 06:53 Calm 10 Clear CLR 68 68     100%     29.97 29.95     0
Jun 03 06:19 3 10 Partly Cloudy FEW003 SCT110 67 67     100%     29.95        
Jun 03 05:53 E 5 10 Mostly Clear FEW100 67 67     100%     29.94 29.92 0    
Jun 03 04:53 Calm 9 Light Rain BKN120 67 67     100%     29.93 29.92 0    
Jun 03 03:53 SE 6 4 Heavy Rain and Fog/Mist BKN070 OVC085 67 67     100%     29.95 29.93 0 0  
Jun 03 02:53 8 10 Light Rain SCT035 BKN050 OVC075 69 68     96%     29.96 29.95 0    
Jun 03 02:45 10 10 Light Rain FEW018 BKN031 OVC050 69 69     100%     29.96   0    
Jun 03 02:21 11 10 Cloudy FEW014 BKN022 OVC043 73 72     96%   75 29.96        
Jun 03 01:53 S 5 10 Cloudy FEW043 BKN070 OVC095 73 72     96%   75 29.96 29.94      
Jun 03 00:53 SE 3 10 Clear CLR 72 72     100%   74 29.96 29.95      
Jun 02 23:53 SE 5 10 Clear CLR 72 71     97%   73 29.97 29.96      
Jun 02 22:53 Calm 10 Clear CLR 71 71     100%   73 29.97 29.96      
Jun 02 21:53 Calm 10 Clear CLR 72 72     100%   74 29.95 29.93      
Jun 02 20:53 Calm 10 Clear CLR 74 72     94%   75 29.94 29.93      
Jun 02 19:53 Calm 10 Clear CLR 76 73     91%   77 29.94 29.93      
Jun 02 18:53 3 10 Mostly Clear FEW034 79 71     77%   82 29.94 29.92      
Jun 02 17:53 E 3 10 Partly Cloudy FEW028 SCT085 79 72     79%   82 29.94 29.93      
Jun 02 16:53 3 10 Mostly Cloudy BKN085 80 70     71%   83 29.95 29.93      
Jun 02 15:53 3 10 Mostly Cloudy FEW024 BKN049 BKN070 79 71     77%   82 29.96 29.95      
Jun 02 14:53 E 7 10 Mostly Cloudy FEW022 SCT036 BKN060 79 70     74%   82 29.98 29.97      
Jun 02 14:14 5 10 Cloudy FEW024 BKN037 OVC050 78 70     76%   79 29.99        
Jun 02 13:53 7 10 Mostly Cloudy BKN023 BKN031 BKN038 77 70     79%   78 30 29.98      
Jun 02 13:25 E 7 10 Mostly Cloudy BKN031 BKN043 79 70     74%   82 30.01        
Jun 02 12:53 7 10 Cloudy FEW017 OVC027 77 69     77%   78 30.03 30.01      
Jun 02 11:53 3 10 Cloudy OVC017 75 69     82%   76 30.05 30.03      
Jun 02 10:53 E 6 10 Cloudy OVC016 74 68     82%   75 30.04 30.03      
Jun 02 10:35 3 10 Cloudy OVC015 73 68     84%   74 30.04        
Jun 02 09:53 3 10 Cloudy OVC012 72 68     87%   73 30.04 30.03      
Jun 02 08:53 6 10 Cloudy OVC012 70 68     93%     30.04 30.03      
Jun 02 07:53 3 10 Cloudy FEW005 OVC014 69 69     100%     30.03 30.01      
Jun 02 07:17 NE 3 9 Cloudy SCT006 OVC013 68 68     100%     30.02        
Jun 02 06:53 Calm 8 Cloudy BKN006 OVC013 68 68     100%     30.02 30      
Jun 02 05:53 3 10 Cloudy OVC007 68 68     100%     30 29.98      
Jun 02 05:26 Calm 10 Cloudy OVC005 68 68     100%     30        
Jun 02 04:53 SE 5 9 Cloudy OVC004 68 68     100%     30 29.98      
Jun 02 03:53 Calm 8 Cloudy OVC003 68 68     100%     30 29.98      
Jun 02 03:29 E 3 10 Cloudy OVC004 68 68     100%     29.99        
Jun 02 02:53 Calm 10 Cloudy OVC005 68 68     100%     30 29.98      
Jun 02 02:12 Calm 10 Cloudy SCT005 BKN009 OVC020 68 68     100%     29.99        
Jun 02 02:05 Calm 10 Cloudy FEW005 SCT009 OVC020 68 68     100%     29.99        
Jun 02 01:53 Calm 10 Cloudy FEW005 BKN008 OVC020 68 68     100%     30 29.98      
Jun 02 01:39 5 10 Cloudy SCT006 BKN010 OVC020 68 68     100%     30        
Jun 02 01:31 3 10 Cloudy OVC008 68 68     100%     30        
Jun 02 00:53 5 10 Mostly Cloudy BKN011 BKN018 68 68     100%     29.99 29.98      
Jun 02 00:41 5 10 Mostly Cloudy FEW011 BKN018 68 68     100%     29.99        
Jun 02 00:29 3 10 Mostly Cloudy FEW007 BKN014 BKN020 68 68     100%     29.99        
Jun 02 00:24 NE 5 10 Mostly Cloudy BKN016 BKN022 68 68     100%     30        
Jun 02 00:16 3 10 Cloudy FEW009 BKN014 OVC018 68 68     100%     30        
Jun 02 00:08 NE 3 10 Mostly Cloudy FEW010 BKN016 68 68     100%     30        
Jun 01 23:53 NE 5 10 Partly Cloudy SCT010 SCT016 68 68     100%     30 29.99      
Jun 01 22:53 3 10 Clear CLR 68 68     100%     29.99 29.98      
Jun 01 21:53 3 10 Clear CLR 70 70     100%     29.99 29.98      
Jun 01 20:53 Calm 10 Clear CLR 70 70     100%     29.97 29.96      
Jun 01 19:53 Calm 10 Mostly Clear FEW021 74 71     91%   75 29.98 29.96      
Jun 01 18:53 7 10 Partly Cloudy SCT100 76 70     82%   77 29.98 29.96     0
Jun 01 17:53 7 10 Partly Cloudy FEW016 SCT100 77 70     79%   78 30 29.98      
Jun 01 16:53 NE 9 10 Cloudy FEW017 SCT022 OVC110 75 70     84%   76 30.01 30      
Jun 01 16:49 NE 9 10 Cloudy FEW017 SCT022 OVC110 73 70     89%   75 30.02        
Jun 01 16:33 9 10 Mostly Cloudy BKN020 BKN120 74 71     91%   75 30.02        
Jun 01 15:53 9 10 Partly Cloudy SCT015 SCT021 74 70     87%   75 30.02 30.01   0  
Jun 01 14:53 E 6 10 Partly Cloudy SCT010 73 70     90%   74 30.01 30 0    
Jun 01 14:48 E 5 10 Partly Cloudy SCT010 73 70     89%   75 30.02   0    
Jun 01 13:53 Calm 10 Light Rain BKN005 OVC100 70 69     97%     30.05 30.04 0    
Jun 01 13:49 Calm 10 Light Rain BKN005 OVC100 70 70     100%     30.05   0    
Jun 01 13:32 7 10 Cloudy FEW004 SCT028 OVC110 69 69     100%     30.05   0    
Jun 01 12:53 W 6 9 Light Rain FEW060 SCT090 OVC110 67 67     100%     30.06 30.05 0   0
Jun 01 12:26 W 10 5 Light Rain and Fog/Mist SCT020 BKN049 OVC100 67 67     100%     30.07   0    
Jun 01 12:21 WSW 13 3 Thunderstorms and Rain and Fog/Mist BKN018 BKN049 OVC065 66 66     100%     30.07   0    
Jun 01 12:15 WSW 10 1.5 Thunderstorms and Heavy Rain and Fog/Mist FEW006 BKN017 OVC045 66 66     100%     30.08   0    
Jun 01 12:04 WSW 7 1.25 Heavy Rain and Fog/Mist FEW006 BKN016 OVC021 66 66     100%     30.09   0    
Jun 01 11:31 10 10 Thunderstorms and Rain SCT008 BKN017 OVC080 69 68     96%     30.06   0    
Jun 01 11:21 S 11 10 Thunderstorms BKN008 OVC016 71 70     96%   72 30.06        
Jun 01 10:33 6 10 Clear CLR 72 71     97%   73 30.03        
Jun 01 09:53 3 10 Clear CLR 72 71     97%   73 30.05 30.03      
Jun 01 07:53 E 5 10 Clear CLR 70 70     100%     30.05 30.03      
Jun 01 06:53 Calm 10 Clear CLR 70 69     97%     30.03 30.02      
Jun 01 05:53 SE 5 10 Clear CLR 69 69     100%     30.01 29.99      
Jun 01 04:53 E 3 10 Clear CLR 69 68     96%     30.01 29.99      
Jun 01 03:53 E 3 10 Clear CLR 69 69     100%     30.01 29.99      
Jun 01 02:53 5 10 Clear CLR 69 68     96%     30.01 29.99      
Jun 01 01:53 Calm 10 Clear CLR 68 68     100%     30.04 30.02      
Jun 01 00:53 Calm 10 Clear CLR 69 69     100%     30.04 30.03      
May 31 23:53 SE 3 10 Clear CLR 71 68     90%   72 30.06 30.04      
May 31 22:53 3 10 Clear CLR 73 69     87%   74 30.05 30.03      
May 31 20:53 Calm 10 Clear CLR 74 70     87%   75 30.02 30.01      
May 31 19:53 3 10 Clear CLR 79 68     69%   80 30.01 30      
May 31 18:53 5 10 Clear CLR 83 66     57%   85 30 29.99      
May 31 17:53 E 5 10 Mostly Clear FEW050 85 66     53%   87 30 29.98      
May 31 16:53 6 10 Clear CLR 85 66     53%   87 30 29.99      
May 31 15:53 5 10 Clear CLR 84 66     55%   86 30.03 30.01      
May 31 14:53 6 10 Mostly Clear FEW041 84 67     57%   87 30.05 30.03      
May 31 13:53 5 10 Mostly Clear FEW039 83 69     63%   87 30.06 30.04      
May 31 12:53 3 10 Clear   83 68     61%   86 30.07 30.06      
May 31 12:18 6 10 Mostly Cloudy BKN030 81 69     67%   84 30.08        
May 31 12:09 5 10 Mostly Cloudy BKN028 81 69     67%   84 30.08        
May 31 11:53 3 10 Mostly Cloudy BKN028 BKN033 81 69     67%   84 30.09 30.07      
May 31 10:53 3 10 Mostly Cloudy BKN020 79 70     74%   82 30.09 30.08      
May 31 10:24 E 5 10 Mostly Cloudy BKN022 79 71     77%   82 30.09        
May 31 10:01 Calm 10 Mostly Cloudy BKN020 76 69     79%   77 30.1        
May 31 09:53 Calm 10 Partly Cloudy SCT018 76 69     79%   77 30.1 30.08      
May 31 08:53 Calm 10 Partly Cloudy SCT002 72 70     93%   73 30.11 30.09      
May 31 08:45 Calm 10 Partly Cloudy SCT002 69 69     100%     30.1        
May 31 08:39 Calm 7 Mostly Cloudy BKN002 68 68     100%     30.1        
May 31 08:27 NE 3 2 Fog/Mist OVC002 67 67     100%     30.1        
May 31 08:13 5 1.25 Fog/Mist OVC002 67 67     100%     30.1        
May 31 08:06 Calm 2 Fog/Mist OVC002 66 66     100%     30.1        
May 31 07:58 3 1.5 Fog/Mist OVC002 66 66     100%     30.09        
May 31 07:53 Calm 0.75 Fog/Mist VV002 66 66     100%     30.09 30.08      
May 31 07:27 NE 3 0.5 Fog VV002 65 65     100%     30.09        
May 31 06:53 Calm 0.25 Fog VV002 65 65     100%     30.08 30.06      
May 31 06:36 Calm 0.25 Fog VV001 64 64     100%     30.08        
May 31 05:53 Calm 0.25 Fog VV002 65 65     100%     30.07 30.05      
May 31 05:42 Calm 0.25 Fog VV002 65 65     100%     30.06        
May 31 05:28 Calm 0.5 Fog VV001 65 65     100%     30.06        
May 31 05:18 3 0.5 Fog VV002 65 65     100%     30.06        
May 31 05:09 3 1.25 Fog/Mist BKN003 65 65     100%     30.06        
May 31 05:03 Calm 2.5 Fog/Mist BKN003 65 65     100%     30.06        
May 31 04:53 E 3 4 Fog/Mist SCT003 65 65     100%     30.05 30.04      
May 31 03:53 E 3 9 Clear CLR 66 66     100%     30.05 30.03      
May 31 02:53 SE 3 10 Clear CLR 68 67     96%     30.05 30.03      
May 31 00:53 S 5 10 Clear CLR 70 68     93%     30.05 30.03      
May 30 23:53 SE 6 10 Clear CLR 70 68     93%     30.05 30.04      
May 30 22:53 SE 5 10 Clear CLR 72 67     84%   73 30.06 30.04      
May 30 21:53 3 10 Clear CLR 73 65     76%   74 30.04 30.03      
May 30 20:53 E 3 10 Clear CLR 76 64     67%   76 30.03 30.01      
May 30 19:53 Calm 10 Clear CLR 77 67     71%   78 30.02 30.01      
May 30 18:53 Calm 10 Clear CLR 82 65     56%   84 30.01 29.99      
May 30 17:53 Calm 10 Clear CLR 84 62     48%   85 30.02 30      
May 30 16:53 NE 5 10 Clear CLR 84 62     48%   85 30.03 30.01      
May 30 15:53 5 10 Clear CLR 84 62     48%   85 30.04 30.02      
May 30 14:53 N 7 10 Clear CLR 85 60     43%   85 30.06 30.05      
May 30 14:06 5 10 Clear CLR 83 59     44%   83 30.07        
May 30 13:53 3 10 Clear CLR 82 62     51%   83 30.07 30.06      
May 30 11:53 5 10 Clear CLR 79 66     65%   80 30.11 30.09      
May 30 11:11 Calm 10 Clear   76 70     82%   77 30.11        
May 30 11:03 Calm 9 Clear   75 71     88%   76 30.11        
May 30 10:53 3 8 Clear   75 71     88%   76 30.11 30.1      
May 30 10:42 3 7 Mostly Cloudy BKN005 74 71     91%   75 30.11        
May 30 09:53 Calm 4 Fog/Mist OVC002 69 69     100%     30.11 30.1      
May 30 09:49 3 2 Fog/Mist OVC002 70 70     100%     30.11        
May 30 09:41 NNW 3 1 Fog/Mist OVC002 69 69     100%     30.11        
May 30 09:34 3 0.75 Fog/Mist OVC002 69 69     100%     30.11        
May 30 09:25 N 3 1 Fog/Mist OVC002 68 68     100%     30.11        
May 30 09:11 3 0.5 Fog VV002 68 68     100%     30.12        
May 30 08:53 Calm 0.25 Fog VV002 67 67     100%     30.12 30.11      
May 30 07:53 Calm 0.25 Fog VV002 66 66     100%     30.1 30.09      
May 30 06:53 N 3 0.25 Fog VV002 64 64     100%     30.09 30.08      
May 30 06:41 Calm 0.25 Fog VV002 63 63     100%     30.09        
May 30 05:53 Calm 0.25 Fog VV001 63 63     100%     30.07 30.06      
May 30 04:53 N 3 0.25 Fog VV001 63 63     100%     30.07 30.05      
May 30 04:47 3 0.75 Fog/Mist VV002 64 64     100%     30.07        
May 30 04:45 N 3 1.25 Fog/Mist SCT003 64 64     100%     30.07        
May 30 04:35 Calm 2 Fog/Mist SCT002 63 63     100%     30.07        
May 30 04:33 Calm 1 Fog/Mist VV002 63 63     100%     30.07        
May 30 04:22 Calm 0.25 Fog VV002 62 62     100%     30.07        
May 30 04:15 Calm 0.5 Fog VV002 63 63     100%     30.06        
May 30 04:08 Calm 1 Fog/Mist VV003 63 63     100%     30.06        
May 30 04:06 Calm 1.75 Fog/Mist CLR 64 64     100%     30.06        
May 30 03:53 Calm 7 Clear CLR 65 65     100%     30.06 30.04      
May 30 03:28 Calm 3 Fog/Mist CLR 65 65     100%     30.06        
May 30 03:25 Calm 1.5 Fog/Mist CLR 64 64     100%     30.06        
May 30 03:14 Calm 0.75 Fog/Mist CLR 65 65     100%     30.06        
May 30 03:10 Calm 1.75 Fog/Mist CLR 66 66     100%     30.05        
May 30 02:53 3 6 Fog/Mist CLR 65 65     100%     30.05 30.03      
May 30 01:53 5 6 Fog/Mist CLR 67 67     100%     30.05 30.04      
May 30 00:53 6 10 Clear CLR 68 68     100%     30.06 30.05      
May 29 23:53 6 10 Clear CLR 66 60     81%     30.06 30.05      
May 29 22:53 SE 6 10 Clear   70 60     71%     30.05 30.03      
May 29 20:53 Calm 10 Clear CLR 67 63     87%     30.02 30      
May 29 19:53 Calm 10 Clear CLR 75 64     69%   75 30.01 29.99      
May 29 18:53 6 10 Clear CLR 81 56     42%   81 30 29.99      
May 29 17:53 5 10 Clear CLR 83 56     40%   82 30.01 29.99      
May 29 16:53 6 10 Clear CLR 83 59     44%   83 30 29.98